Weather History for VANP - March, 2013

Change the Weather History Date:

Wednesday, March 20, 2013

  Actual Average Record
Temperature  
Mean Temperature 80 °F -  
Max Temperature 91 °F 102 °F - ()
Min Temperature 69 °F 73 °F - ()
Cooling Degree Days 15    
Growing Degree Days 30 (Base 50)    
Moisture  
Dew Point 61 °F    
Average Humidity 48    
Maximum Humidity 70    
Minimum Humidity 34    
Precipitation  
Precipitation 0.00 in 0.01 in - ()
Sea Level Pressure  
Sea Level Pressure 29.87 in    
Wind  
Wind Speed 1 mph ()    
Max Wind Speed 5 mph    
Max Gust Speed -    
Visibility 1.8 miles    
Events Rain    
T = Trace of Precipitation, MM = Missing Value Source: Averaged Metar Reports

Daily Weather History Graph

Daily Weather History Graph

Search for Another Location

Airport or City:

Trip Planner

Search our weather history database for the weather conditions in past years. The results will help you decide how hot, cold, wet, or windy it might be!

Date:

Astronomy

Mar. 20, 2013 Rise Set
Actual Time 6:18 AM IST 6:24 PM IST
Civil Twilight 5:55 AM IST 6:46 PM IST
Nautical Twilight 5:30 AM IST 7:12 PM IST
Astronomical Twilight 5:04 AM IST 7:38 PM IST
Moon 12:15 PM IST (3/20) 12:56 AM IST (3/20)
Length of Visible Light 12h 51m
Length of Day
12h 06m
First Quarter, 55% of the Moon is Illuminated
Mar 20
First Quarter
Mar 27
Full
Apr 3
Last Quarter
Apr 10
New
Apr 18
First Quarter

Hourly Weather History & Observations

Time (IST) Temp. Heat Index Dew Point Humidity Pressure Visibility Wind Dir Wind Speed Gust Speed Precip Events Conditions
12:10 AM 82.4 °F 82.5 °F 59.0 °F 45% 29.86 in 3.1 mi North 2.3 mph - N/A   Haze
1:10 AM 80.6 °F 81.1 °F 59.0 °F 48% 29.86 in 3.1 mi Calm Calm - N/A   Haze
2:10 AM 80.6 °F 81.1 °F 59.0 °F 48% 29.83 in 3.1 mi Calm Calm - N/A   Haze
2:30 AM 72 °F - 62 °F 64% 29.82 in 2 mi Calm Calm - -   Haze
3:10 AM 77.0 °F - 59.0 °F 54% 29.83 in 3.1 mi Calm Calm - N/A   Haze
4:10 AM 75.2 °F - 60.8 °F 61% 29.83 in 3.1 mi Calm Calm - N/A   Haze
5:10 AM 77.0 °F - 60.8 °F 57% 29.83 in 3.1 mi Calm Calm - N/A   Haze
5:30 AM 73 °F - 64 °F 65% 29.83 in 2 mi Calm Calm - -   Haze
6:10 AM 77.0 °F - 62.6 °F 61% 29.86 in 2.5 mi Calm Calm - N/A   Haze
8:10 AM 78.8 °F - 59.0 °F 51% 29.95 in 1.6 mi West 2.3 mph - N/A   Haze
8:30 AM 76 °F - 62 °F 53% 29.93 in 1 mi West 3.5 mph - -   Haze
9:10 AM 80.6 °F 80.5 °F 55.4 °F 42% 29.98 in 1.2 mi WNW 2.3 mph - N/A   Haze
10:10 AM 84.2 °F 83.0 °F 55.4 °F 37% 29.98 in 1.6 mi NNE 2.3 mph - N/A   Haze
11:10 AM 84.2 °F 83.5 °F 57.2 °F 40% 29.95 in 1.6 mi East 2.3 mph - N/A   Haze
11:30 AM 80 °F - 61 °F 41% 29.88 in 1 mi NE 3.5 mph - - Rain Light Rain
12:10 PM 84.2 °F 83.8 °F 59.0 °F 42% 29.92 in 1.6 mi East 2.3 mph - N/A   Haze
1:10 PM 84.2 °F 84.4 °F 60.8 °F 45% 29.89 in 1.6 mi ESE 2.3 mph - N/A   Haze
2:10 PM 89.6 °F 90.1 °F 62.6 °F 40% 29.86 in 1.6 mi East 2.3 mph - N/A   Haze
2:30 PM 85 °F - 64 °F 39% 29.81 in 1 mi NE 3.5 mph - -   Haze
3:10 PM 91.4 °F 92.1 °F 62.6 °F 38% 29.83 in 1.6 mi ESE 4.6 mph - N/A   Haze
4:10 PM 93.2 °F 93.3 °F 60.8 °F 34% 29.80 in 1.6 mi East 3.5 mph - N/A   Haze
5:30 PM 88 °F - 64 °F 35% 29.77 in 1 mi East 3.5 mph - -   Haze
6:10 PM 91.4 °F 92.1 °F 62.6 °F 38% 29.83 in 1.6 mi Calm Calm - N/A   Haze
7:10 PM 86.0 °F 86.6 °F 62.6 °F 45% 29.83 in 1.6 mi Calm Calm - N/A   Haze
8:10 PM 84.2 °F 85.0 °F 62.6 °F 48% 29.86 in 1.6 mi ENE 3.5 mph - N/A   Haze
8:30 PM 79 °F - 64 °F 52% 29.84 in 1 mi East 3.5 mph - -   Haze
9:10 PM 82.4 °F 83.4 °F 62.6 °F 51% 29.89 in 1.6 mi ENE 2.3 mph - N/A   Haze
10:10 PM 82.4 °F 83.4 °F 62.6 °F 51% 29.89 in 1.6 mi Calm Calm - N/A   Haze
11:10 PM 80.6 °F 81.8 °F 62.6 °F 54% 29.89 in 1.6 mi Calm Calm - N/A   Haze
11:30 PM 73 °F - 65 °F 70% 29.87 in 1 mi Calm Calm - -   Haze